Decay rate: 5.45e-06 rev/day^2
Epoch rev: 04611
Checksum: 280
Satellite: MAST
Catalog number: 31126
Epoch time: 08009.24695377
Element set: 0228
Inclination: 098.0616 deg
RA of node: 079.9217 deg
Eccentricity: 0.0095857
Arg of perigee: 107.5825 deg
Mean anomaly: 253.5891 deg
Mean motion: 14.53391948 rev/day
Decay rate: 3.41e-06 rev/day^2
Epoch rev: 03878
Checksum: 335
Satellite: CAPE1
Catalog number: 31130
Epoch time: 08009.93240846
Element set: 0214
Inclination: 098.0599 deg
RA of node: 079.9539 deg
Eccentricity: 0.0103572
Arg of perigee: 106.9963 deg
Mean anomaly: 254.2588 deg
Mean motion: 14.51919809 rev/day
Decay rate: -3.4e-07 rev/day^2
Epoch rev: 03861
Checksum: 320
/EX
1
0
SB KEPS @ AMSAT $ORB08003.N
2Line Orbital Elements 08003.AMSAT
HR AMSAT ORBITAL ELEMENTS FOR AMATEUR SATELLITES IN NASA FORMAT
FROM WA5QGD FORT WORTH,TX January 3, 2008
Send Subscribe/unsubscribe to KEPS at
http://www.amsat.org/mailman/listinfo/keps
BID: ORB08003.N
DECODE 2-LINE ELSETS WITH THE FOLLOWING KEY:
1 AAAAAU 00 0 0 BBBBB.BBBBBBBB .CCCCCCCC 00000-0 00000-0 0 DDDZ
2 AAAAA EEE.EEEE FFF.FFFF GGGGGGG HHH.HHHH III.IIII JJ.JJJJJJJJKKKKKZ
KEY: A-CATALOGNUM B-EPOCHTIME C-DECAY D-ELSETNUM E-INCLINATION F-RAAN
G-ECCENTRICITY H-ARGPERIGEE I-MNANOM J-MNMOTION K-ORBITNUM Z-CHECKSUM
TO ALL RADIO AMATEURS BT
AO-07
1 07530U 74089B 08002.65768752 -.00000028 00000-0 10000-3 0 00704
2 07530 101.4901 039.5937 0011884 226.7834 133.2245 12.53573243516112
AO-10
1 14129U 83058B 08001.70306160 -.00000056 00000-0 10000-3 0 04567
2 14129 025.9454 237.8553 6042238 086.4804 336.4590 02.05871848184653
UO-11
1 14781U 84021B 08002.69179365 -.00000204 00000-0 -19910-4 0 05619
2 14781 098.1743 034.0621 0008127 248.0801 111.9529 14.79605553279238
RS-15
1 23439U 94085A 08002.62796719 -.00000039 00000-0 10000-3 0 01421
2 23439 064.8190 044.3912 0152422 154.4284 206.4278 11.27552157536186
FO-29
1 24278U 96046B 08002.87563247 -.00000062 00000-0 -24161-4 0 06771
2 24278 098.5779 300.9551 0349945 286.1613 070.1280 13.52935259561907
SO-33
1 25509U 98061B 08003.73936594 .00000246 00000-0 38435-4 0 1016
2 25509 031.4289 171.8201 0355439 020.7157 340.7486 14.28191186479947
AO-40
1 26609U 00072B 08002.39817030 -.00000263 00000-0 10000-3 0 9865
2 26609 007.2364 104.0231 7929633 038.2054 356.7900 01.25583288 32949
VO-52
1 28650U 05017B 08003.38500725 .00000164 00000-0 27537-4 0 8207
2 28650 097.8111 074.3850 0026428 323.4961 036.4407 14.81404060144053
PO-63
1 29712U 07001D 08003.79406543 .00000512 00000-0 74511-4 0 629
2 29712 097.8998 064.9335 0013995 194.0028 166.0791 14.79966480 53006
AO-16
1 20439U 90005D 08002.46950894 -.00000003 00000-0 14215-4 0 02182
2 20439 098.2136 351.2157 0010448 318.3007 041.7387 14.31780209937062
LO-19
1 20442U 90005G 08002.68427535 -.00000072 00000-0 -11721-4 0 01423
2 20442 098.1894 000.4065 0011265 314.9081 045.1183 14.32019254937247
AO-27
1 22825U 93061C 08002.65236297 -.00000001 00000-0 15953-4 0 8659
2 22825 098.3619 329.1338 0009255 036.3347 323.8471 14.29226731743989
IO-26
1 22826U 93061D 08002.80527452 -.00000002 00000-0 15421-4 0 5651
2 22826 098.3549 330.2666 0009605 033.6355 326.5430 14.29474178744095
PO-28
1 22829U 93061G 08002.59348708 -.00000079 00000-0 -14404-4 0 08406
2 22829 098.3437 331.1975 0009738 008.3597 351.7753 14.30176051744315
GO-32
1 25397U 98043D 08002.62299876 -.00000125 00000-0 -37201-4 0 04935
2 25397 098.3889 045.8233 0001606 041.5897 318.5391 14.23135917492523
MO-46
1 26548U 00057D 08002.76597308 .00000071 00000-0 26484-4 0 9886
2 26548 064.5580 285.2087 0009746 346.1348 013.9513 14.83215035393135
NO-44
1 26931U 01043C 08002.49015076 .00000015 00000-0 38388-4 0 07719
2 26931 067.0530 354.0829 0004841 262.4895 097.5659 14.29507029326582
SO-50
1 27607U 02058C 08002.61863740 -.00000101 00000-0 65135-5 0 04951
2 27607 064.5572 199.4807 0076488 313.0525 046.4166 14.71315230270466
CO-55
1 27844U 03031E 08002.64888515 .00000006 00000-0 23249-4 0 2024
2 27844 098.7181 013.2179 0009136 234.8267 125.2051 14.20551926233790
CO-57
1 27848U 03031J 08003.61102466 .00000027 00000-0 33248-4 0 1594
2 27848 098.7176 013.2985 0009129 237.0001 123.0296 14.20365890233909
AO-51
1 28375U 04025K 08002.56238131 .00000016 00000-0 17952-4 0 09978
2 28375 098.0887 036.3542 0083804 298.9935 060.2873 14.40592728184414
CO-56
1 28941U 06005C 08002.90798872 .00013284 25857-5 12368-3 0 07648
2 28941 098.1090 092.1924 0196086 281.5052 076.4241 15.47829846104242
HO-59
1 29484U 06041F 08003.66183373 .00044771 32936-5 21457-3 0 46
2 29484 098.2580 091.2033 0147035 257.6470 100.8377 15.68656181 72316
NO-61
1 29664U 06055F 07359.16654419 .14620719 12705-4 12723-3 0 7381
2 29664 051.6179 150.0690 0003189 248.8461 111.8136 16.51627846 58777
CP4
1 31122U 07012F 08002.68342450 .00000551 00000-0 13192-3 0 02275
2 31122 098.0647 074.2944 0086520 125.7593 235.1659 14.55070997037860
CP3
1 31128U 07012M 08002.69959404 -.00000046 00000-0 00000-0 0 02232
2 31128 098.0612 073.0083 0103598 129.2360 231.8089 14.51899788037778
LIBERT
1 31129U 07012N 08003.71749379 .00000339 00000-0 89029-4 0 6415
2 31129 098.0622 074.0114 0103494 126.1809 234.9003 14.51991571 37903
NOAA-10
1 16969U 86073A 08002.94883759 -.00000039 00000-0 24414-5 0 09508
2 16969 098.7356 025.1447 0011895 308.9609 051.0511 14.27345902107720
NOAA-11
1 19531U 88089A 08002.69855746 -.00000145 00000-0 -52274-4 0 09819
2 19531 098.8049 094.3254 0011476 179.2265 180.8931 14.14860955994361
NOAA-12
1 21263U 91032A 08002.71271050 -.00000085 00000-0 -17029-4 0 04872
2 21263 098.7637 004.7183 0011637 247.2355 112.7567 14.25509599864674
MET-3/5
1 21655U 91056A 08002.89624598 .00000051 00000-0 10000-3 0 03737
2 21655 082.5525 221.8385 0014602 069.3279 290.9408 13.17013634787694
MET-2/21
1 22782U 93055A 08002.74131225 .00000019 00000-0 34400-5 0 00298
2 22782 082.5460 243.5988 0023645 039.5926 320.6942 13.83623504724117
OKEAN-4
1 23317U 94066A 08002.75881638 .00000325 00000-0 37413-4 0 04703
2 23317 082.5391 110.3626 0021107 319.2638 040.6985 14.82566286713627
NOAA-14
1 23455U 94089A 08002.87549225 .00000157 00000-0 10694-3 0 09571
2 23455 098.9673 074.8879 0008721 252.7083 107.3103 14.13733518670858
SICH-1
1 23657U 95046A 08002.73434666 .00000236 00000-0 26955-4 0 2676
2 23657 082.5265 251.3227 0022851 310.7309 049.1923 14.81540316665576
NOAA-15
1 25338U 98030A 08002.70049288 -.00000063 00000-0 -86808-5 0 02976
2 25338 098.5452 358.8914 0010853 162.8047 197.3477 14.24679158501099
RESURS
1 25394U 98043A 08002.66978749 -.00000020 00000-0 94592-5 0 08326
2 25394 098.4134 054.0130 0001704 001.6321 358.4865 14.24151755492742
FENGYUN1
1 25730U 99025A 08002.94893365 -.00000061 00000-0 -11078-4 0 03634
2 25730 098.7102 344.4643 0020299 279.7731 080.1147 14.07654721445575
OKEAN-0
1 25860U 99039A 08002.54206122 .00000015 00000-0 95021-5 0 02545
2 25860 097.7393 000.5716 0001865 080.1784 279.9629 14.73493638454856
NOAA-16
1 26536U 00055A 08002.66969961 -.00000087 00000-0 -21879-4 0 07440
2 26536 099.1420 348.3290 0010251 337.7608 022.3133 14.12462729375266
NOAA-17
1 27453U 02032A 08002.87175747 .00000073 00000-0 50517-4 0 07411
2 27453 098.5586 072.1540 0011105 229.6340 130.3867 14.23937747287133
NOAA-18
1 28654U 05018A 08002.85453576 -.00000140 00000-0 -53393-4 0 02551
2 28654 098.8514 305.9842 0015261 064.9550 295.3207 14.11123867135019
HUBBLE
1 20580U 90037B 08002.97699398 .00000290 00000-0 96416-5 0 00447
2 20580 028.4695 327.2448 0003781 063.7898 296.3080 15.00321266769995
UARS
1 21701U 91063B 08002.94201162 .00005226 00000-0 86735-4 0 02581
2 21701 056.9726 165.9136 0084913 215.0105 144.5353 15.50068229896701
PO-34
1 25520U 98064B 08002.90117372 .00000394 00000-0 96415-5 0 9010
2 25520 028.4597 211.9834 0005255 270.4070 089.5927 15.17108592507883
ISS
1 25544U 98067A 08002.89295425 .00013774 00000-0 82126-4 0 06334
2 25544 051.6378 154.0332 0002185 028.3265 108.9255 15.78270614522282
OO-38
1 26063U 00004C 08002.74656800 -.00000027 00000-0 11311-4 0 01024
2 26063 100.2153 047.1394 0036659 318.7541 041.0864 14.35824149415685
UWE-1
1 28892U 05043C 08002.63891578 .00000227 00000-0 57334-4 0 09399
2 28892 098.1130 260.0837 0016717 206.9887 153.0441 14.59579211116304
CO-58
1 28895U 05043F 08002.40590657 .00000059 00000-0 22084-4 0 09130
2 28895 098.1160 260.1450 0017385 207.4780 152.5471 14.59620617116159
NCUBE2
1 28897U 05043H 08003.69205203 .00000117 00000-0 34158-4 0 4432
2 28897 098.1141 261.3438 0016724 205.4915 154.5473 14.59788599108624
FCAL
1 29667U 06055J 08003.71660486 .00028431 11665-4 67555-4 0 6366
2 29667 051.6310 116.2252 0010051 053.2691 306.9244 15.97998611 59952
FALCON
1 30776U 07006E 08002.56695501 .00000284 00000-0 23864-4 0 02335
2 30776 035.4326 083.8925 0001613 352.7363 007.3329 15.02838776045069
MAST
1 31126U 07012K 08002.22468481 -.00000038 00000-0 19384-5 0 02229
2 31126 098.0622 073.1623 0095717 129.0078 231.9680 14.53388904037767
CAPE1
1 31130U 07012P 08002.90302714 .00000120 00000-0 38486-4 0 2027
2 31130 098.0616 073.2065 0103814 128.7508 232.3022 14.51917944 37594
/EX
1
0
SB KEPS @ AMSAT $ORB08003.O
Orbital Elements 08003.OSCAR
HR AMSAT ORBITAL ELEMENTS FOR OSCAR SATELLITES
FROM WA5QGD FORT WORTH,TX January 3, 2008
Send Subscribe/unsubscribe to KEPS at
http://www.amsat.org/mailman/listinfo/keps
BID: ORB08003.O
TO ALL RADIO AMATEURS BT
Satellite: AO-07
Catalog number: 07530
Epoch time: 08002.65768752
Element set: 0070
Inclination: 101.4901 deg
RA of node: 039.5937 deg
Eccentricity: 0.0011884
Arg of perigee: 226.7834 deg
Mean anomaly: 133.2245 deg
Mean motion: 12.53573243 rev/day
Decay rate: -2.8e-07 rev/day^2
Epoch rev: 51611
Checksum: 282
Satellite: AO-10
Catalog number: 14129
Epoch time: 08001.70306160
Element set: 0456
Inclination: 025.9454 deg
RA of node: 237.8553 deg
Eccentricity: 0.6042238
Arg of perigee: 086.4804 deg
Mean anomaly: 336.4590 deg
Mean motion: 02.05871848 rev/day
Decay rate: -5.6e-07 rev/day^2
Epoch rev: 18465
Checksum: 302
Satellite: UO-11
Catalog number: 14781
Epoch time: 08002.69179365
Element set: 0561
Inclination: 098.1743 deg
RA of node: 034.0621 deg
